SCP
0 0 0 0 0 0 0 0 0 0 0 0 0 0 0 0 0 0 0 0 0 0 0 0 0 0 0 0 0 0 0 0 0 0 0 0 0 0 0 0 0 0 0 0
0 0 0 0 0 0 0 0 0 0 0 0 0 0 0 0 0 0 0 0 0 0 0 0 0 0 0 0 0 0 0 0 0 0 0 0 0 0 0 0 0 0 0 0
0 0 0 0 0 0 0 0 0 0 0 0 0 0 0 0 0 0 0 0 0 0 0 0 0 0 0 0 0 0 0 0 0 0 0 0 0 0 0 0 0 0 0 0
0 0 0 0 0 0 0 0 0 0 0 0 0 0 0 0 0 0 0 0 0 0 0 0 0 0 0 0 0 0 0 0 0 0 0 0 0 0 0 0 0 0 0 0
0 0 0 0 0 0 0 0 0 0 0 0 0 0 0 0 0 0 0 0 0 0 0 -0 0 0 0 0 0 0 0 0 0 0 0 0 0 0 0 0 0 0 0 0
0 0 0 0 0 0 0 0 0 0 0 0 0 0 0 0 0 0 0 -0 0 -0 -0 -0 0 0 0 0 0 0 0 0 0 0 0 0 0 0 0 0 0 0 0 0
0 0 0 0 0 0 0 0 0 0 0 0 0 0 0 0 -0 -0 -0 -0 -0 -0 -0 0 0 0 0 0 0 0 0 0 0 0 0 0 0 0 0 0 0 0 0 0
0 0 0 0 0 0 0 0 0 0 0 0 0 -0 -0 -0 -0 -0 -0 -0 -0 -0 -0 0 0 0 0 0 0 0 0 0 0 0 0 0 0 0 0 0 0 0 0 0
0 0 0 0 0 0 0 0 0 0 0 0 0 -0 -0 -0 -0 -0 -0 -0 -0 -0 -0 0 0 0 0 0 0 0 0 0 0 0 0 0 0 0 0 0 0 0 0 -0
0 0 0 0 0 0 0 0 0 0 0 0 -0 -0 -0 -0 -0 -0 -0 -0 -0 0 0 0 0 0 0 0 0 0 0 0 0 0 0 0 0 0 0 0 0 0 0 0
0 0 0 0 0 0 0 0 0 0 -0 -0 -0 -0 -0 -0 -0 -0 -0 -0 -0 -0 -0 0 0 0 0 0 0 0 0 0 0 0 0 0 0 0 0 0 0 0 0 0
0 0 0 0 0 0 0 0 0 -0 -0 -0 -0 -0 -0 -0 0 0 0 -0 -0 -0 -0 0 0 0 0 0 0 0 0 0 0 0 0 0 0 0 0 0 0 0 0 0
0 0 0 0 0 0 0 -0 -0 -0 -0 -0 -0 -0 0 0 0 -0 -0 -0 0 0 0 0 0 0 0 0 0 0 0 0 0 0 0 0 0 0 0 0 0 0 0 0
0 0 0 0 0 0 0 0 -0 -0 -0 -0 -0 -0 0 0 -0 -0 -0 -0 -0 0 0 0 0 0 0 0 0 0 0 0 0 0 0 0 0 0 0 0 0 0 0 0
0 0 0 0 0 0 0 0 -0 -0 -0 -0 0 0 0 -0 -0 -0 -0 -0 -0 -0 0 0 0 0 0 0 0 0 0 0 0 0 0 0 0 -0 0 0 0 0 0 0
0 0 0 0 0 0 0 -0 -0 -0 -0 -0 -0 -0 -0 -0 -0 -0 -0 -0 -0 -0 -0 -0 0 0 0 0 0 0 0 0 0 0 0 0 0 0 0 0 0 0 0 0
0 0 0 0 0 0 0 -0 -0 -0 0 -0 -0 -0 -0 -0 -0 -0 -0 -0 0 -0 -0 -0 0 0 0 0 0 0 0 0 0 0 -0 0 -0 0 0 0 0 0 0 0
0 0 0 0 0 0 -0 -0 -0 -0 0 -0 0 -0 -0 -0 -0 -0 -0 -0 0 0 0 0 0 0 0 0 0 0 0 0 0 0 0 -0 -0 -0 -0 0 0 0 0 0
0 0 0 0 0 -0 -0 -0 -0 -0 0 0 -0 0 -0 -0 -0 -0 -0 -0 -0 0 0 0 -0 0 0 0 0 0 0 0 0 -0 -0 -0 -0 -0 -0 -0 -0 0 0 0
0 0 0 -0 -0 -0 -0 -0 -0 -0 0 0 -0 -0 -0 -0 -0 -0 -0 -0 -0 0 0 0 0 0 0 0 0 0 0 0 0 0 0 -0 -0 -0 -0 -0 -0 -0 0 0
0 0 -0 -0 0 0 -0 -0 -0 -0 -0 0 -0 -0 -0 0 -0 0 -0 -0 -0 -0 -0 -0 0 0 0 0 0 0 0 0 0 0 0 0 0 -0 -0 -0 0 0 0 0
-0 0 0 0 0 -0 -0 0 0 -0 -0 0 0 -0 -0 0 0 0 -0 0 0 -0 0 0 0 0 0 0 0 0 0 0 0 0 0 0 0 0 0 -0 -0 0 0 0
0 0 0 0 0 0 -0 -0 -0 -0 -0 0 0 -0 -0 -0 -0 -0 0 0 -0 -0 -0 -0 0 -0 0 0 0 0 0 0 0 0 0 0 0 0 0 0 -0 -0 0 0
0 0 0 -0 -0 0 0 -0 -0 -0 -0 -0 0 0 -0 -0 -0 -0 -0 -0 -0 -0 -0 -0 0 -0 0 0 0 0 0 0 0 0 0 0 0 0 0 -0 -0 -0 0 0
0 0 -0 -0 -0 -0 0 -0 -0 -0 -0 -0 -0 -0 -0 -0 -0 -0 -0 -0 -0 -0 -0 0 0 0 0 0 0 0 0 0 0 0 0 0 0 0 0 0 0 -0 0 0
-0 0 0 -0 -0 -0 -0 -0 0 0 -0 -0 -0 -0 -0 -0 -0 -0 -0 -0 -0 -0 -0 -0 -0 0 0 0 0 0 0 0 0 0 0 0 0 0 0 0 0 -0 -0 0
-0 -0 -0 -0 -0 0 0 0 0 0 -0 -0 -0 -0 -0 -0 -0 -0 -0 -0 -0 -0 -0 -0 0 0 0 0 0 0 0 0 0 -0 0 0 0 0 -0 -0 0 0 0 -0
Wind_Speed_500mb
2 5 3 8 10 14 13 12 16 11 17 20 9 5 9 15 11 16 24 34 45 55 63 69 71 72 75 79 84 89 95 100 104 107 110 113 115 115 111 107 101 90 76 63
5 6 7 7 16 13 16 22 23 21 18 6 13 8 11 18 8 21 34 49 59 67 71 72 75 81 91 102 108 109 108 105 101 94 88 86 84 86 97 101 98 99 98 83
6 9 12 11 11 14 4 8 10 16 8 5 3 9 15 18 9 32 50 63 68 67 69 78 90 98 103 101 96 92 90 90 86 83 79 80 79 77 73 66 66 71 75 79
1 7 3 8 11 12 22 10 12 13 8 5 5 24 34 13 17 49 59 62 64 72 86 94 96 90 84 80 80 77 77 75 73 69 68 63 61 54 58 72 71 64 70 66
4 3 11 1 4 4 4 2 5 4 4 6 21 25 15 9 41 55 54 60 72 81 91 90 82 73 73 76 73 70 70 68 66 62 61 60 66 69 57 57 65 55 55 60
6 4 7 7 5 13 4 4 1 2 3 5 11 8 8 33 56 57 68 71 75 89 78 62 67 66 67 68 66 67 65 64 62 61 58 59 63 70 70 64 62 68 58 50
7 5 12 7 13 15 4 6 4 2 3 7 5 13 47 56 67 70 70 65 83 61 63 66 62 61 64 64 64 60 58 58 59 58 56 57 59 51 49 48 49 52 51 57
7 7 12 9 4 0 5 5 4 11 14 24 32 44 54 66 69 69 70 76 69 66 65 62 58 56 61 62 59 55 54 55 57 57 52 52 47 48 48 46 53 41 43 43
9 3 5 9 7 6 13 5 10 15 20 28 42 55 58 57 61 64 67 64 63 62 66 60 56 52 57 56 55 53 53 51 52 52 49 38 41 42 39 42 36 42 38 44
5 9 13 3 2 10 13 14 13 17 27 36 48 45 51 60 56 57 62 63 60 60 59 60 53 47 45 49 47 46 46 47 49 49 43 40 36 32 34 34 38 34 30 42
6 3 12 6 6 15 12 12 18 25 32 40 42 50 51 57 60 58 56 56 54 53 54 52 47 42 40 41 41 42 44 42 39 45 39 40 36 33 33 35 32 34 31 33
9 21 13 11 20 12 12 19 24 33 43 40 41 45 49 53 50 50 52 51 50 48 46 45 40 34 36 38 37 41 44 41 40 38 38 33 32 34 27 23 22 21 32 24
9 17 25 33 21 14 17 22 27 37 43 43 43 42 44 47 49 46 46 46 45 43 41 38 34 32 33 34 35 35 39 37 37 37 32 34 32 31 24 17 17 22 31 19
25 43 28 10 16 17 21 27 28 34 44 55 45 44 45 47 50 46 44 42 40 37 36 36 34 32 31 29 31 33 36 36 34 34 32 32 32 13 15 8 11 17 23 19
24 18 28 28 20 20 20 31 42 43 43 53 54 51 52 51 51 49 44 42 39 37 39 38 35 33 28 28 30 31 32 34 37 30 32 24 21 23 11 9 15 12 19 24
35 32 29 25 23 16 15 25 38 44 54 48 50 57 56 53 51 51 49 48 49 50 47 43 39 37 31 28 28 29 25 22 25 31 23 25 31 18 15 22 30 24 31 23
42 31 30 28 24 20 16 21 34 46 51 52 51 51 57 56 55 56 55 58 51 53 51 48 45 39 32 25 23 24 24 22 16 21 17 20 25 18 14 16 16 21 21 15
17 22 19 24 21 19 20 16 29 47 46 60 58 59 57 58 58 58 55 61 64 62 59 53 49 39 31 27 20 18 20 17 13 10 9 10 10 9 7 4 6 6 3 10
21 25 25 22 18 19 22 14 20 35 47 41 62 65 62 55 58 60 58 62 69 72 70 62 52 46 38 32 26 17 12 10 9 10 9 8 12 11 10 11 11 8 7 10
26 24 21 19 15 14 21 20 21 27 43 40 47 68 72 66 62 67 68 67 62 57 59 62 59 55 49 41 33 24 18 12 8 8 11 12 12 15 19 22 23 22 21 18
21 20 17 12 11 14 19 19 16 26 41 40 39 51 69 70 65 65 72 72 65 61 60 61 62 61 55 49 44 37 30 23 15 10 10 7 12 19 20 19 20 22 22 23
24 19 14 10 11 17 21 19 15 24 40 41 39 40 59 73 72 66 61 61 62 63 64 63 61 57 57 54 52 50 41 32 26 21 15 8 7 10 16 25 26 27 24 24
21 19 16 15 15 18 21 24 17 24 39 44 42 42 48 64 72 73 68 64 60 61 63 62 60 61 62 64 63 58 54 47 39 33 29 22 13 9 10 14 18 27 30 29
21 21 19 18 16 13 21 21 15 20 37 43 41 39 44 54 63 68 60 57 57 59 61 61 61 62 66 69 68 66 64 59 53 45 38 31 25 15 9 9 13 16 23 29
19 22 18 18 18 20 20 16 16 20 31 42 43 39 39 48 60 66 66 58 58 58 60 61 62 65 67 67 68 69 69 66 62 57 52 45 37 29 21 12 7 10 16 21
15 19 21 22 20 12 12 14 17 20 29 37 40 40 38 45 56 64 65 58 57 57 58 59 61 63 65 66 66 67 68 69 70 67 63 58 49 41 32 23 14 7 8 15
23 21 15 18 20 14 13 17 17 23 28 32 34 36 38 46 58 66 68 62 57 57 57 58 59 61 63 64 64 66 67 67 68 68 69 66 60 51 42 34 22 15 11 10
Wind_Direction_500mb
7 289 276 206 212 219 212 184 200 202 211 248 172 110 53 8 358 349 343 338 334 330 327 324 322 319 317 313 310 308 304 301 298 296 293 291 289 287 283 279 275 270 269 270
315 325 39 275 270 254 232 231 227 229 245 135 119 59 4 354 312 339 335 332 329 325 323 322 319 316 312 309 308 306 303 301 300 296 292 289 287 285 285 285 279 272 265 265
260 351 325 287 242 229 134 39 232 221 182 92 38 322 324 322 307 334 330 325 323 321 318 315 312 311 310 309 307 305 304 303 301 299 297 294 289 287 286 283 281 274 270 262
276 349 270 238 336 109 105 65 61 72 78 88 331 320 316 262 331 326 320 318 315 313 313 313 312 311 310 311 310 308 306 304 304 301 300 301 294 284 284 281 283 272 264 265
147 239 292 160 30 57 73 75 41 77 26 347 341 325 312 206 318 315 314 310 310 313 314 312 312 314 313 312 313 309 307 306 305 303 295 289 288 285 282 287 271 282 268 260
147 172 239 240 313 351 313 225 300 111 360 306 333 344 243 301 314 314 315 317 313 315 314 311 314 318 314 313 314 315 316 313 309 306 301 289 284 283 283 274 273 271 272 259
161 211 287 267 316 331 134 230 343 72 340 321 255 259 305 313 313 317 319 315 317 317 311 320 323 322 316 317 316 321 318 316 313 308 303 297 291 289 287 276 268 273 270 263
169 184 255 345 327 248 224 360 36 6 349 328 321 317 317 317 318 320 318 314 320 320 322 326 328 325 321 319 323 318 316 317 320 315 306 299 292 285 287 274 272 274 275 264
167 223 187 71 114 339 335 43 30 1 344 333 324 321 320 319 321 318 318 322 325 327 324 327 332 330 323 325 326 320 318 317 320 315 306 299 298 285 278 286 271 275 272 274
142 214 219 17 258 43 74 68 22 356 336 333 328 326 320 320 320 320 325 328 329 324 327 329 335 335 335 334 330 326 320 320 320 313 317 312 302 286 278 276 269 268 272 249
218 179 173 198 26 121 79 32 4 352 348 339 334 327 325 324 325 326 327 327 327 327 327 332 339 348 353 349 344 338 334 331 325 327 319 317 310 309 284 285 263 267 260 257
216 174 145 105 120 97 52 32 13 4 356 351 344 334 333 330 329 331 329 328 330 331 333 339 345 350 353 351 346 340 340 340 337 330 314 330 319 314 302 276 250 244 250 254
147 172 133 128 108 77 66 39 27 22 13 356 352 348 345 342 343 336 339 336 336 336 339 342 345 349 350 348 346 349 345 342 336 342 331 329 321 317 304 271 244 237 227 241
134 134 116 158 118 98 68 41 32 26 22 12 1 2 359 359 357 353 349 343 341 343 348 349 348 354 356 352 349 354 350 351 343 344 341 338 343 324 320 292 269 219 228 197
155 181 142 126 117 107 73 47 38 30 18 15 10 12 11 8 6 3 360 357 358 1 359 355 353 357 358 353 353 353 355 354 359 6 353 346 351 336 338 199 262 180 180 152
124 126 125 122 120 103 67 37 30 26 23 12 11 15 15 15 13 11 12 13 13 10 2 359 357 356 354 351 357 358 358 0 354 1 14 1 8 50 62 66 98 106 131 139
135 136 138 121 101 79 60 51 36 29 30 19 21 21 18 16 18 17 18 21 24 19 11 6 1 358 348 347 354 0 3 0 352 357 23 27 24 52 85 60 61 89 123 141
140 134 131 126 109 78 52 60 38 29 24 26 27 26 23 21 21 17 18 17 23 24 19 15 8 1 357 348 344 347 3 357 5 350 1 348 17 57 59 43 43 43 165 148
125 126 121 109 104 72 44 54 37 27 21 26 25 29 26 24 26 24 25 21 21 19 18 19 13 13 10 2 355 339 336 3 357 343 306 273 255 267 262 251 235 242 221 192
114 116 109 100 95 74 44 50 40 27 21 26 25 27 29 26 27 27 29 29 24 19 19 21 20 19 17 14 10 6 3 345 338 315 290 280 267 266 260 253 254 254 252 242
140 134 122 102 103 83 49 46 46 34 24 25 27 26 27 26 29 27 26 27 23 24 25 27 27 25 23 20 21 21 21 19 17 354 325 325 258 258 256 258 260 254 251 250
124 125 115 104 103 85 56 51 62 32 25 27 28 25 25 25 27 31 29 25 24 26 28 28 28 32 31 30 30 30 29 28 28 29 28 2 288 273 251 248 250 248 250 250
120 114 95 86 117 92 62 53 60 33 26 26 26 27 27 25 24 22 22 25 27 28 30 31 30 33 34 36 34 32 33 32 30 31 26 18 7 330 280 255 248 242 242 242
131 116 94 79 96 138 59 57 59 39 28 29 28 27 23 21 23 23 23 23 27 28 30 31 32 34 36 36 36 34 33 32 31 30 28 23 18 15 350 289 253 243 234 233
118 123 97 71 79 103 64 61 67 55 30 26 29 30 26 21 20 17 18 20 22 25 27 28 31 32 35 36 35 34 34 33 30 29 30 29 25 21 17 7 312 258 243 240
110 119 105 77 73 89 53 56 64 53 31 26 26 28 25 17 16 16 17 19 20 23 25 25 26 29 31 33 34 33 32 31 30 31 29 28 28 26 20 16 6 334 276 253
102 119 113 77 60 60 60 67 54 50 34 23 17 21 20 14 13 14 18 21 22 23 24 24 24 26 27 28 29 30 30 29 29 28 29 28 26 25 23 16 11 358 332 290
Wind_Speed_850mb
2 5 3 8 10 14 13 12 16 11 17 20 9 5 9 15 11 16 24 34 45 55 63 69 71 72 75 79 84 89 95 100 104 107 110 113 115 115 111 107 101 90 76 63
5 6 7 7 16 13 16 22 23 21 18 6 13 8 11 18 8 21 34 49 59 67 71 72 75 81 91 102 108 109 108 105 101 94 88 86 84 86 97 101 98 99 98 83
6 9 12 11 11 14 4 8 10 16 8 5 3 9 15 18 9 32 50 63 68 67 69 78 90 98 103 101 96 92 90 90 86 83 79 80 79 77 73 66 66 71 75 79
1 7 3 8 11 12 22 10 12 13 8 5 5 24 34 13 17 49 59 62 64 72 86 94 96 90 84 80 80 77 77 75 73 69 68 63 61 54 58 72 71 64 70 66
4 3 11 1 4 4 4 2 5 4 4 6 21 25 15 9 41 55 54 60 72 81 91 90 82 73 73 76 73 70 70 68 66 62 61 60 66 69 57 57 65 55 55 60
6 4 7 7 5 13 4 4 1 2 3 5 11 8 8 33 56 57 68 71 75 89 78 62 67 66 67 68 66 67 65 64 62 61 58 59 63 70 70 64 62 68 58 50
7 5 12 7 13 15 4 6 4 2 3 7 5 13 47 56 67 70 70 65 83 61 63 66 62 61 64 64 64 60 58 58 59 58 56 57 59 51 49 48 49 52 51 57
7 7 12 9 4 0 5 5 4 11 14 24 32 44 54 66 69 69 70 76 69 66 65 62 58 56 61 62 59 55 54 55 57 57 52 52 47 48 48 46 53 41 43 43
9 3 5 9 7 6 13 5 10 15 20 28 42 55 58 57 61 64 67 64 63 62 66 60 56 52 57 56 55 53 53 51 52 52 49 38 41 42 39 42 36 42 38 44
5 9 13 3 2 10 13 14 13 17 27 36 48 45 51 60 56 57 62 63 60 60 59 60 53 47 45 49 47 46 46 47 49 49 43 40 36 32 34 34 38 34 30 42
6 3 12 6 6 15 12 12 18 25 32 40 42 50 51 57 60 58 56 56 54 53 54 52 47 42 40 41 41 42 44 42 39 45 39 40 36 33 33 35 32 34 31 33
9 21 13 11 20 12 12 19 24 33 43 40 41 45 49 53 50 50 52 51 50 48 46 45 40 34 36 38 37 41 44 41 40 38 38 33 32 34 27 23 22 21 32 24
9 17 25 33 21 14 17 22 27 37 43 43 43 42 44 47 49 46 46 46 45 43 41 38 34 32 33 34 35 35 39 37 37 37 32 34 32 31 24 17 17 22 31 19
25 43 28 10 16 17 21 27 28 34 44 55 45 44 45 47 50 46 44 42 40 37 36 36 34 32 31 29 31 33 36 36 34 34 32 32 32 13 15 8 11 17 23 19
24 18 28 28 20 20 20 31 42 43 43 53 54 51 52 51 51 49 44 42 39 37 39 38 35 33 28 28 30 31 32 34 37 30 32 24 21 23 11 9 15 12 19 24
35 32 29 25 23 16 15 25 38 44 54 48 50 57 56 53 51 51 49 48 49 50 47 43 39 37 31 28 28 29 25 22 25 31 23 25 31 18 15 22 30 24 31 23
42 31 30 28 24 20 16 21 34 46 51 52 51 51 57 56 55 56 55 58 51 53 51 48 45 39 32 25 23 24 24 22 16 21 17 20 25 18 14 16 16 21 21 15
17 22 19 24 21 19 20 16 29 47 46 60 58 59 57 58 58 58 55 61 64 62 59 53 49 39 31 27 20 18 20 17 13 10 9 10 10 9 7 4 6 6 3 10
21 25 25 22 18 19 22 14 20 35 47 41 62 65 62 55 58 60 58 62 69 72 70 62 52 46 38 32 26 17 12 10 9 10 9 8 12 11 10 11 11 8 7 10
26 24 21 19 15 14 21 20 21 27 43 40 47 68 72 66 62 67 68 67 62 57 59 62 59 55 49 41 33 24 18 12 8 8 11 12 12 15 19 22 23 22 21 18
21 20 17 12 11 14 19 19 16 26 41 40 39 51 69 70 65 65 72 72 65 61 60 61 62 61 55 49 44 37 30 23 15 10 10 7 12 19 20 19 20 22 22 23
24 19 14 10 11 17 21 19 15 24 40 41 39 40 59 73 72 66 61 61 62 63 64 63 61 57 57 54 52 50 41 32 26 21 15 8 7 10 16 25 26 27 24 24
21 19 16 15 15 18 21 24 17 24 39 44 42 42 48 64 72 73 68 64 60 61 63 62 60 61 62 64 63 58 54 47 39 33 29 22 13 9 10 14 18 27 30 29
21 21 19 18 16 13 21 21 15 20 37 43 41 39 44 54 63 68 60 57 57 59 61 61 61 62 66 69 68 66 64 59 53 45 38 31 25 15 9 9 13 16 23 29
19 22 18 18 18 20 20 16 16 20 31 42 43 39 39 48 60 66 66 58 58 58 60 61 62 65 67 67 68 69 69 66 62 57 52 45 37 29 21 12 7 10 16 21
15 19 21 22 20 12 12 14 17 20 29 37 40 40 38 45 56 64 65 58 57 57 58 59 61 63 65 66 66 67 68 69 70 67 63 58 49 41 32 23 14 7 8 15
23 21 15 18 20 14 13 17 17 23 28 32 34 36 38 46 58 66 68 62 57 57 57 58 59 61 63 64 64 66 67 67 68 68 69 66 60 51 42 34 22 15 11 10
Wind_Direction_850mb
7 289 276 206 212 219 212 184 200 202 211 248 172 110 53 8 358 349 343 338 334 330 327 324 322 319 317 313 310 308 304 301 298 296 293 291 289 287 283 279 275 270 269 270
315 325 39 275 270 254 232 231 227 229 245 135 119 59 4 354 312 339 335 332 329 325 323 322 319 316 312 309 308 306 303 301 300 296 292 289 287 285 285 285 279 272 265 265
260 351 325 287 242 229 134 39 232 221 182 92 38 322 324 322 307 334 330 325 323 321 318 315 312 311 310 309 307 305 304 303 301 299 297 294 289 287 286 283 281 274 270 262
276 349 270 238 336 109 105 65 61 72 78 88 331 320 316 262 331 326 320 318 315 313 313 313 312 311 310 311 310 308 306 304 304 301 300 301 294 284 284 281 283 272 264 265
147 239 292 160 30 57 73 75 41 77 26 347 341 325 312 206 318 315 314 310 310 313 314 312 312 314 313 312 313 309 307 306 305 303 295 289 288 285 282 287 271 282 268 260
147 172 239 240 313 351 313 225 300 111 360 306 333 344 243 301 314 314 315 317 313 315 314 311 314 318 314 313 314 315 316 313 309 306 301 289 284 283 283 274 273 271 272 259
161 211 287 267 316 331 134 230 343 72 340 321 255 259 305 313 313 317 319 315 317 317 311 320 323 322 316 317 316 321 318 316 313 308 303 297 291 289 287 276 268 273 270 263
169 184 255 345 327 248 224 360 36 6 349 328 321 317 317 317 318 320 318 314 320 320 322 326 328 325 321 319 323 318 316 317 320 315 306 299 292 285 287 274 272 274 275 264
167 223 187 71 114 339 335 43 30 1 344 333 324 321 320 319 321 318 318 322 325 327 324 327 332 330 323 325 326 320 318 317 320 315 306 299 298 285 278 286 271 275 272 274
142 214 219 17 258 43 74 68 22 356 336 333 328 326 320 320 320 320 325 328 329 324 327 329 335 335 335 334 330 326 320 320 320 313 317 312 302 286 278 276 269 268 272 249
218 179 173 198 26 121 79 32 4 352 348 339 334 327 325 324 325 326 327 327 327 327 327 332 339 348 353 349 344 338 334 331 325 327 319 317 310 309 284 285 263 267 260 257
216 174 145 105 120 97 52 32 13 4 356 351 344 334 333 330 329 331 329 328 330 331 333 339 345 350 353 351 346 340 340 340 337 330 314 330 319 314 302 276 250 244 250 254
147 172 133 128 108 77 66 39 27 22 13 356 352 348 345 342 343 336 339 336 336 336 339 342 345 349 350 348 346 349 345 342 336 342 331 329 321 317 304 271 244 237 227 241
134 134 116 158 118 98 68 41 32 26 22 12 1 2 359 359 357 353 349 343 341 343 348 349 348 354 356 352 349 354 350 351 343 344 341 338 343 324 320 292 269 219 228 197
155 181 142 126 117 107 73 47 38 30 18 15 10 12 11 8 6 3 360 357 358 1 359 355 353 357 358 353 353 353 355 354 359 6 353 346 351 336 338 199 262 180 180 152
124 126 125 122 120 103 67 37 30 26 23 12 11 15 15 15 13 11 12 13 13 10 2 359 357 356 354 351 357 358 358 0 354 1 14 1 8 50 62 66 98 106 131 139
135 136 138 121 101 79 60 51 36 29 30 19 21 21 18 16 18 17 18 21 24 19 11 6 1 358 348 347 354 0 3 0 352 357 23 27 24 52 85 60 61 89 123 141
140 134 131 126 109 78 52 60 38 29 24 26 27 26 23 21 21 17 18 17 23 24 19 15 8 1 357 348 344 347 3 357 5 350 1 348 17 57 59 43 43 43 165 148
125 126 121 109 104 72 44 54 37 27 21 26 25 29 26 24 26 24 25 21 21 19 18 19 13 13 10 2 355 339 336 3 357 343 306 273 255 267 262 251 235 242 221 192
114 116 109 100 95 74 44 50 40 27 21 26 25 27 29 26 27 27 29 29 24 19 19 21 20 19 17 14 10 6 3 345 338 315 290 280 267 266 260 253 254 254 252 242
140 134 122 102 103 83 49 46 46 34 24 25 27 26 27 26 29 27 26 27 23 24 25 27 27 25 23 20 21 21 21 19 17 354 325 325 258 258 256 258 260 254 251 250
124 125 115 104 103 85 56 51 62 32 25 27 28 25 25 25 27 31 29 25 24 26 28 28 28 32 31 30 30 30 29 28 28 29 28 2 288 273 251 248 250 248 250 250
120 114 95 86 117 92 62 53 60 33 26 26 26 27 27 25 24 22 22 25 27 28 30 31 30 33 34 36 34 32 33 32 30 31 26 18 7 330 280 255 248 242 242 242
131 116 94 79 96 138 59 57 59 39 28 29 28 27 23 21 23 23 23 23 27 28 30 31 32 34 36 36 36 34 33 32 31 30 28 23 18 15 350 289 253 243 234 233
118 123 97 71 79 103 64 61 67 55 30 26 29 30 26 21 20 17 18 20 22 25 27 28 31 32 35 36 35 34 34 33 30 29 30 29 25 21 17 7 312 258 243 240
110 119 105 77 73 89 53 56 64 53 31 26 26 28 25 17 16 16 17 19 20 23 25 25 26 29 31 33 34 33 32 31 30 31 29 28 28 26 20 16 6 334 276 253
102 119 113 77 60 60 60 67 54 50 34 23 17 21 20 14 13 14 18 21 22 23 24 24 24 26 27 28 29 30 30 29 29 28 29 28 26 25 23 16 11 358 332 290